Tracking 35055 objects as of 18-Aug-2026
HD Live streaming from Space Station
objects crossing your sky now

STARLINK-32402

Track STARLINK-32402 now!
10-day predictions
STARLINK-32402 is classified as:


NORAD ID: 61708
Int'l Code: 2024-196B
Launch date: October 30, 2024
Source: United States (US)
Launch site: AIR FORCE EASTERN TEST RANGE (AFETR)
Your satellite tracking list
Your tracking list is empty




NASA's NSSDC Master Catalog

Two Line Element Set (TLE):
1 61708U 24196B   26229.94098719  .00001258  00000-0  48381-4 0  9996
2 61708  53.1598  70.3129 0000978  91.6206 268.4909 15.34390685101874
Source of the keplerian elements: AFSPC